This is the latest recevied weather packets stored in our database for station/object DC1NF-7. If no packets are shown the sender has not sent any weather packets the latest 10 day(s).
| Time | Temp. | Humidity | Pressure | Rain* | Wind** | Luminosity | Snow |
|---|---|---|---|---|---|---|---|
| 1777730123 | 27.78° C | 23% | 1019.2 hPa | 0 mm | - | 603 W/m² | - |
| 1777729518 | 27.78° C | 23% | 1019.4 hPa | 0 mm | - | 621 W/m² | - |
| 1777728372 | 27.78° C | 24% | 1019.7 hPa | 0 mm | - | 708 W/m² | - |
| 1777727165 | 27.78° C | 24% | 1019.9 hPa | 0 mm | - | 714 W/m² | - |
| 1777726564 | 27.22° C | 24% | 1020 hPa | 0 mm | - | 762 W/m² | - |
| 1777725956 | 26.11° C | 24% | 1020.2 hPa | 0 mm | - | 748 W/m² | - |
| 1777725353 | 27.22° C | 23% | 1020.4 hPa | 0 mm | - | 788 W/m² | - |
| 1777724753 | 27.22° C | 24% | 1020.4 hPa | 0 mm | - | 828 W/m² | - |
| 1777724147 | 26.67° C | 24% | 1020.6 hPa | 0 mm | - | 807 W/m² | - |
| 1777723543 | 26.67° C | 25% | 1020.8 hPa | 0 mm | - | 782 W/m² | - |
| 1777722941 | 26.11° C | 26% | 1021 hPa | 0 mm | - | 804 W/m² | - |
| 1777722341 | 25.56° C | 27% | 1021 hPa | 0 mm | - | 785 W/m² | - |
| 1777721733 | 25° C | 27% | 1021.2 hPa | 0 mm | - | 775 W/m² | - |
| 1777721132 | 25° C | 27% | 1021.4 hPa | 0 mm | - | 818 W/m² | - |
| 1777720525 | 25.56° C | 26% | 1021.4 hPa | 0 mm | - | 833 W/m² | - |
| 1777719921 | 25.56° C | 29% | 1021.6 hPa | 0 mm | - | 918 W/m² | - |
| 1777719318 | 25° C | 31% | 1021.7 hPa | 0 mm | - | 902 W/m² | - |
| 1777718715 | 24.44° C | 31% | 1021.7 hPa | 0 mm | - | 882 W/m² | - |
| 1777718174 | 23.89° C | 32% | 1021.8 hPa | 0 mm | - | 891 W/m² | - |
| 1777717567 | 23.89° C | 33% | 1022.1 hPa | 0 mm | - | 883 W/m² | - |
| 1777716963 | 22.78° C | 35% | 1022.3 hPa | 0 mm | - | 873 W/m² | - |
| 1777716361 | 23.33° C | 35% | 1022.5 hPa | 0 mm | - | 860 W/m² | - |
| 1777715754 | 22.22° C | 37% | 1022.5 hPa | 0 mm | - | 849 W/m² | - |
| 1777715149 | 21.67° C | 38% | 1022.6 hPa | 0 mm | - | 834 W/m² | - |
| 1777714546 | 22.22° C | 38% | 1022.8 hPa | 0 mm | - | 819 W/m² | - |
* Rain latest hour (hover to see other rain measurements)
** Current wind speed in m/s (hover to see current wind gust speed)